EHI
5 7 9 9 8 10 13 14 13 12 10 7 7 8 9 10 9 8 8 8 7 3 1 1 1 2 3 3 1 0 0 1 1 1 1 0 0 1 1 1 0 0 0
7 10 13 12 13 16 17 17 16 15 13 10 7 7 9 11 11 10 10 9 8 5 3 2 1 1 2 3 2 1 1 2 2 2 2 1 0 0 1 1 2 2 1
8 14 19 20 20 22 22 20 18 19 19 17 12 10 12 13 13 13 13 12 11 8 7 5 2 1 2 2 1 1 2 4 4 4 4 3 1 0 0 2 3 4 3
8 13 20 22 22 21 22 21 21 23 26 25 21 19 19 16 14 14 15 15 13 11 8 5 3 2 2 1 1 2 3 4 5 6 6 5 4 2 1 1 2 3 4
8 10 15 18 19 18 19 23 27 31 33 33 29 27 23 18 15 17 18 18 16 13 8 4 3 3 1 1 3 4 4 4 5 6 7 7 7 6 4 2 0 1 2
10 10 11 14 17 19 22 27 35 40 40 36 32 30 27 22 20 20 20 19 17 15 10 6 4 3 2 4 7 10 8 5 5 6 8 8 9 8 6 3 1 0 0
12 13 13 14 18 23 28 34 40 43 41 37 33 32 30 27 25 23 21 18 16 15 13 9 6 5 4 6 10 13 11 7 6 7 9 9 9 8 6 4 1 0 0
13 14 14 14 18 25 32 37 40 41 38 36 35 34 34 31 28 27 22 17 14 13 12 11 9 8 7 8 11 12 10 8 7 8 9 9 8 8 7 5 2 1 0
13 13 14 15 17 23 30 37 41 41 37 35 35 36 37 35 32 29 25 19 15 13 14 14 12 11 10 11 11 10 9 8 7 7 8 8 7 6 6 6 4 2 1
15 14 15 17 18 22 28 35 40 41 37 34 33 35 38 39 36 33 29 22 18 18 19 18 17 14 12 11 12 12 11 9 8 8 8 8 6 6 8 10 9 7 4
16 16 17 19 20 23 29 34 37 40 39 37 37 37 38 38 38 38 33 26 22 21 21 21 20 16 11 10 11 11 10 10 9 8 8 8 8 10 13 15 15 12 10
18 20 21 23 26 30 33 35 39 43 45 46 45 43 41 40 39 38 34 29 24 21 19 18 17 13 10 10 11 11 9 10 11 11 10 10 12 13 15 16 16 15 14
22 25 28 30 35 40 41 42 46 49 52 53 50 48 47 45 42 37 32 29 25 20 16 13 11 9 9 11 13 12 11 12 13 14 14 14 14 15 15 14 13 14 14
26 31 35 37 41 45 46 48 51 52 52 52 50 50 49 46 41 36 31 28 24 18 13 9 7 7 10 12 13 13 12 13 13 14 15 15 13 12 12 10 10 11 11
26 34 41 41 43 45 46 49 52 52 51 50 48 47 44 39 35 33 29 25 21 16 11 7 6 7 8 9 10 10 10 12 12 12 13 13 10 7 6 6 7 8 9
25 34 41 44 46 47 47 49 51 52 50 49 46 41 34 30 28 27 24 22 19 15 11 8 7 7 7 6 5 5 7 10 11 12 13 10 6 5 4 3 3 4 7
26 31 38 45 50 49 48 49 51 51 49 46 41 34 28 27 25 23 22 21 20 17 14 11 9 9 8 5 2 1 4 7 10 13 12 8 4 4 5 4 3 3 4
29 31 36 42 47 46 44 46 47 45 42 37 32 29 27 27 26 24 24 23 22 19 15 14 13 12 10 5 1 1 3 7 10 10 8 6 4 4 6 7 6 5 3
36 36 36 37 39 39 39 41 41 37 33 28 24 24 27 27 25 25 25 25 23 19 15 15 15 14 10 5 1 2 6 9 9 7 5 4 4 3 4 6 6 5 4
40 39 38 36 35 35 37 39 37 32 27 23 19 21 24 25 24 25 25 24 23 19 15 14 13 13 10 5 2 3 7 10 9 7 4 3 3 2 2 3 3 3 2
37 38 39 39 36 35 37 35 31 26 22 19 18 20 22 23 24 25 24 22 20 17 15 13 11 10 8 5 3 3 6 8 9 7 5 3 1 1 0 1 1 1 1
36 38 40 40 37 35 34 31 25 19 17 17 19 20 22 23 23 23 22 19 16 16 16 14 11 9 7 6 3 2 2 5 7 7 4 2 1 0 0 0 0 0 0
37 38 38 38 35 32 30 26 20 15 14 17 19 19 19 20 21 22 20 17 14 14 16 15 12 9 9 7 4 1 1 2 4 4 2 1 0 0 0 0 0 0 0
34 34 34 34 33 30 25 21 17 14 13 16 18 17 14 14 17 18 17 15 13 14 15 14 11 10 11 8 5 3 3 2 2 2 1 0 0 0 0 0 0 0 0
26 26 28 30 29 25 20 17 16 14 13 14 16 15 12 11 13 13 12 11 11 11 11 10 9 10 10 7 5 4 3 3 2 2 0 0 0 0 0 0 0 0 0
21 22 23 25 25 20 16 14 15 14 12 13 15 14 11 10 11 10 9 8 8 7 6 6 8 9 8 4 3 2 2 2 2 1 0 0 0 0 0 0 0 0 0
Wind_Speed
10 9 10 9 9 8 8 8 8 7 6 5 5 5 4 4 3 3 3 3 3 3 3 3 1 3 2 2 2 2 2 2 2 2 2 2 3 3 3 3 3 4 4
10 10 10 10 9 9 9 9 9 8 8 6 4 4 3 3 3 3 3 4 4 4 3 2 3 2 2 3 3 3 3 2 2 2 2 2 3 4 3 3 4 3 3
11 11 11 10 10 10 9 8 9 8 8 7 5 4 4 4 4 5 4 4 4 4 3 3 3 3 3 2 3 3 3 3 2 2 2 2 1 1 3 3 2 2 2
10 10 10 10 10 10 9 9 9 9 8 8 8 8 6 5 4 3 3 3 4 4 4 5 4 4 3 3 4 3 3 3 3 2 2 3 2 2 1 3 3 3 3
9 10 10 10 10 10 10 9 9 9 8 8 8 7 7 5 4 3 3 3 3 4 4 4 4 4 4 3 4 3 4 3 3 3 2 2 2 4 3 2 2 2 2
9 9 9 9 9 9 9 9 9 9 9 9 8 8 7 6 5 4 4 4 3 3 4 4 4 4 3 3 3 3 4 3 3 3 3 3 3 3 3 3 3 2 2
8 8 9 9 9 9 9 9 10 9 9 9 8 8 8 7 6 5 5 5 3 3 3 3 3 3 2 3 3 3 3 3 3 3 3 3 4 3 3 3 3 3 2
7 7 8 9 9 10 10 10 9 9 9 8 8 7 7 6 5 5 5 4 3 3 2 3 3 2 3 3 2 2 2 2 2 3 3 3 3 3 3 3 3 3 3
6 7 7 8 9 9 10 10 9 9 8 8 7 6 6 6 5 4 5 4 3 3 3 3 3 3 2 2 2 2 2 2 2 3 3 3 2 3 3 3 3 3 4
4 5 6 7 7 8 8 8 8 8 7 7 6 5 6 6 5 4 4 3 3 2 2 3 3 2 2 2 2 2 2 2 2 2 2 3 2 2 2 3 2 3 4
4 4 4 5 6 6 7 8 8 8 7 6 6 5 5 5 4 4 3 3 3 2 3 2 2 2 2 2 2 2 2 2 2 2 2 2 2 2 2 2 2 2 2
2 3 4 4 5 6 7 7 7 7 7 6 5 5 4 4 4 3 3 3 2 2 2 2 2 2 2 2 2 2 2 2 1 1 1 2 2 2 2 2 2 2 2
3 4 4 4 5 5 6 7 7 7 7 6 6 5 4 4 3 3 3 3 3 2 2 2 2 2 1 1 1 1 1 1 1 1 1 2 2 2 2 2 2 2 2
3 4 4 4 4 5 6 6 6 6 6 6 6 5 4 4 3 3 3 3 2 2 2 2 2 2 1 1 1 1 1 0 1 1 1 2 2 2 2 2 2 2 2
3 4 4 5 5 5 6 6 6 6 6 6 5 4 4 4 3 3 3 3 3 2 2 2 2 2 1 1 0 0 1 0 1 1 1 2 3 5 3 2 2 2 2
3 4 5 5 5 5 5 6 6 6 6 6 6 5 5 5 4 4 4 4 3 3 2 2 2 2 1 4 3 2 1 1 1 1 1 1 2 3 3 4 4 4 3
4 4 4 5 4 4 4 5 6 6 6 6 6 6 5 5 5 5 4 4 3 3 3 2 2 2 3 4 3 2 1 1 2 2 2 1 3 3 2 3 3 3 4
4 4 4 5 4 4 5 5 5 6 6 6 5 5 5 5 5 5 5 4 3 3 3 3 3 3 4 4 2 1 1 2 2 2 2 2 3 4 3 2 2 3 4
4 4 4 4 4 4 5 5 5 5 5 5 4 4 5 5 5 5 5 4 4 4 3 3 3 3 4 4 2 1 2 3 3 3 4 4 4 7 5 2 2 3 3
4 4 4 5 5 5 5 5 6 5 4 4 3 4 4 4 4 4 4 4 4 4 3 4 3 3 4 4 3 2 1 3 3 4 5 8 7 7 6 2 2 3 3
5 5 5 5 5 6 6 6 6 5 4 4 4 4 4 4 4 4 4 4 4 4 4 4 4 4 4 5 4 3 1 2 3 3 3 5 7 6 6 4 4 3 2
5 6 5 5 5 5 6 7 6 5 4 4 5 5 4 4 4 4 4 4 4 5 4 4 3 3 4 4 4 4 3 3 3 3 4 5 5 5 5 5 5 4 2
5 5 6 6 5 4 4 6 5 4 5 5 5 5 5 4 4 4 4 3 3 3 3 3 3 3 3 5 6 5 4 4 3 4 7 6 4 3 5 5 3 2 2
5 5 5 5 5 4 4 4 4 4 5 5 5 5 5 5 4 3 3 2 2 2 2 2 3 3 4 3 3 4 4 5 4 4 6 6 4 3 4 3 2 3 4
5 5 5 5 5 5 5 4 3 4 5 6 5 5 5 5 5 5 4 4 4 3 2 2 2 2 3 3 4 2 2 2 3 2 3 3 3 3 3 3 4 3 3
5 5 5 6 5 5 4 3 3 3 4 5 5 4 4 4 4 5 6 11 9 9 9 8 5 5 6 6 6 5 5 4 2 2 3 3 3 2 3 3 3 3 3
Wind_Direction
194 192 194 198 197 197 199 202 205 196 199 199 205 204 204 205 207 212 215 226 233 227 238 266 223 250 247 254 256 258 239 238 235 232 216 212 199 192 193 206 205 195 196
196 195 197 199 199 199 205 207 206 200 201 201 209 218 221 220 215 221 212 227 227 230 225 235 253 244 249 252 268 262 261 248 228 245 236 208 179 188 186 190 195 204 200
200 196 198 202 203 202 205 207 206 202 206 204 205 204 205 223 214 213 210 220 225 229 242 241 245 247 252 249 253 251 248 254 239 238 267 272 245 162 172 191 189 201 222
206 199 198 202 206 205 202 205 203 203 203 205 213 212 215 223 226 232 219 210 217 225 226 231 234 242 250 247 249 240 253 255 257 231 243 275 308 274 213 193 184 199 217
205 203 202 202 205 202 200 198 197 200 201 207 211 217 226 227 227 230 223 231 219 225 230 232 232 237 246 250 258 258 257 250 256 253 239 228 231 249 250 242 224 213 211
202 201 199 197 201 200 198 195 191 196 200 206 211 219 230 232 233 229 231 228 221 221 221 231 229 235 243 245 249 248 245 257 266 268 260 253 252 247 244 247 245 249 249
200 195 194 194 197 199 198 196 189 195 200 205 210 215 223 223 226 230 230 240 239 226 216 233 227 231 229 240 247 242 261 256 256 258 258 262 267 272 266 258 262 270 267
194 193 193 192 193 195 195 196 192 195 198 202 209 213 214 219 224 223 239 239 248 249 232 229 226 225 229 233 228 248 243 247 258 265 274 267 266 268 261 262 265 262 257
184 189 190 191 190 192 192 195 190 192 193 197 202 205 209 223 233 225 228 240 239 241 223 224 225 221 219 227 234 251 259 246 250 254 245 256 256 257 260 260 261 260 263
177 181 187 189 191 189 188 188 184 182 186 190 198 194 200 211 223 231 227 242 244 249 232 223 218 212 208 212 228 236 238 244 251 268 277 271 269 279 262 254 259 263 262
170 168 173 177 184 182 176 177 176 177 182 190 192 197 193 199 207 214 219 225 233 223 212 208 201 194 198 206 215 234 230 235 247 260 260 271 289 279 273 259 251 254 256
141 144 151 157 164 166 164 165 167 173 176 176 180 185 187 195 196 198 203 208 211 201 190 188 177 186 194 201 214 228 228 234 244 273 284 291 289 285 287 282 266 263 263
121 124 134 141 145 150 157 158 160 163 163 163 166 165 172 178 184 191 187 184 179 173 172 167 172 182 186 192 208 221 234 246 276 306 305 307 305 296 304 288 273 259 249
126 126 126 128 134 140 146 147 145 147 151 153 150 150 156 162 163 160 157 158 163 166 165 158 157 160 178 180 199 202 194 272 305 316 326 326 315 309 301 288 286 282 275
133 135 130 124 127 130 133 135 136 140 144 144 141 143 144 144 143 140 136 136 144 149 152 151 145 153 158 113 109 177 130 358 308 323 354 19 28 26 2 336 329 303 284
143 137 130 124 123 127 131 133 136 141 143 142 139 139 143 140 140 136 132 131 131 126 123 121 125 130 99 63 40 356 34 27 12 28 36 56 61 63 57 35 23 7 333
139 131 126 125 123 115 117 129 133 136 139 142 142 144 148 143 142 140 133 129 127 122 122 125 120 113 80 69 54 17 4 43 47 48 33 19 39 43 54 81 87 60 31
137 132 132 125 118 113 116 124 129 135 138 142 147 147 147 149 147 139 134 132 132 129 129 128 119 110 83 72 75 42 120 77 66 57 50 45 33 17 8 44 57 63 55
129 131 130 123 115 111 119 124 124 128 132 134 141 146 147 148 149 142 140 138 135 130 131 126 119 113 96 69 49 1 123 106 89 74 57 44 44 28 14 38 63 67 73
123 129 126 121 117 115 120 121 116 114 116 125 135 135 138 143 141 137 137 133 134 134 131 116 117 113 102 79 56 349 135 109 106 96 83 64 48 35 14 28 56 62 54
118 119 120 116 115 122 122 117 108 105 106 114 115 120 130 133 129 125 126 130 130 121 114 112 113 110 101 99 71 29 37 96 103 94 87 76 61 48 28 17 39 27 3
119 119 116 109 112 119 123 119 111 109 113 118 117 115 116 115 115 116 117 122 133 135 132 128 123 114 107 84 84 66 46 28 92 84 81 83 73 66 52 50 42 11 345
111 114 113 110 105 107 113 111 110 118 123 122 119 116 111 107 113 120 123 133 142 141 139 141 136 124 114 106 100 100 84 55 72 84 84 90 93 108 92 75 43 31 48
103 104 106 104 102 101 98 102 116 122 123 120 119 120 117 110 98 98 103 101 111 127 128 127 129 124 116 102 112 123 123 124 117 110 117 130 120 95 85 99 76 53 44
101 104 106 103 96 89 86 91 107 124 125 121 119 123 117 108 95 78 53 65 59 40 46 94 108 108 105 72 53 76 98 99 97 118 121 103 95 87 77 70 64 56 56
110 106 102 99 97 96 94 95 102 124 134 130 129 128 125 122 120 113 91 57 59 62 57 48 56 76 76 95 86 74 68 70 83 118 98 86 76 71 67 64 63 57 47